Location: �quirre
(50.4736°N, 2.2351°E)
Time: 10:39:45
(UTC+00:00)

Cosmos 968 Rocket - Pass Details

Date: 07 August 2020
Orbit: 740 x 771 km, 74.0° (Epoch: 20 September)

Event Time Altitude Azimuth Distance (km) Brightness Sun altitude
Exits shadow 00:19:14 62° 188° (S) 833 3.3 -23.0°
Maximum altitude 00:20:04 83° 113° (ESE) 754 3.3 -23.0°
Drops below altitude 10° 00:25:13 10° 26° (NNE) 2,268 6.9 -22.9°
Sets 00:27:35 0° 25° (NNE) 3,199 8.0 -22.8°
